Weather History for Bullhead City, AZ

Change the Weather History Date:

Wednesday, May 23, 2012

  Actual Average Record
Temperature  
Mean Temperature 90 °F -  
Max Temperature 102 °F 96 °F 111 °F (2000)
Min Temperature 77 °F 74 °F 60 °F (1991)
Cooling Degree Days 24    
Growing Degree Days 40 (Base 50)    
Moisture  
Dew Point 31 °F    
Average Humidity 12    
Maximum Humidity 22    
Minimum Humidity 7    
Precipitation  
Precipitation 0.00 in - - ()
Sea Level Pressure  
Sea Level Pressure 29.52 in    
Wind  
Wind Speed 8 mph (South)    
Max Wind Speed 24 mph    
Max Gust Speed 33 mph    
Visibility 10 miles    
Events      
Averages and records for this station are not official NWS values.
T = Trace of Precipitation, MM = Missing Value Source: NWS Daily Summary

Daily Weather History Graph

Daily Weather History Graph

Search for Another Location

Airport:

Trip Planner

Search our weather history database for the weather conditions in past years. The results will help you decide how hot, cold, wet, or windy it might be!

Date:

Astronomy

May. 23, 2012 Rise Set
Actual Time 5:28 AM MST 7:41 PM MST
Civil Twilight 4:59 AM MST 8:10 PM MST
Nautical Twilight 4:24 AM MST 8:45 PM MST
Astronomical Twilight 3:46 AM MST 9:24 PM MST
Moon 7:35 AM MST (5/23) 10:06 PM MST (5/23)
Length of Visible Light 15h 10m
Length of Day
14h 13m
Waxing Crescent, 7% of the Moon is Illuminated
May 23
Waxing Crescent
May 28
First Quarter
Jun 4
Full
Jun 11
Last Quarter
Jun 19
New

Hourly Weather History & Observations

Time (MST) Temp. Dew Point Humidity Pressure Visibility Wind Dir Wind Speed Gust Speed Precip Events Conditions
12:15 AM 91.4 °F 23.0 °F 8% 29.57 in 10.0 mi SW 6.9 mph - N/A   Clear
12:35 AM 89.6 °F 26.6 °F 10% 29.56 in 10.0 mi SW 5.8 mph - N/A   Clear
12:55 AM 87.8 °F 30.2 °F 13% 29.56 in 10.0 mi SSW 5.8 mph - N/A   Clear
1:15 AM 87.8 °F 28.4 °F 12% 29.57 in 10.0 mi South 8.1 mph - N/A   Clear
1:35 AM 86.0 °F 30.2 °F 13% 29.56 in 10.0 mi South 9.2 mph - N/A   Clear
1:55 AM 86.0 °F 28.4 °F 12% 29.55 in 10.0 mi SSE 12.7 mph - N/A   Clear
2:15 AM 86.0 °F 30.2 °F 13% 29.55 in 10.0 mi SSE 15.0 mph - N/A   Clear
2:55 AM 84.2 °F 32.0 °F 15% 29.56 in 10.0 mi South 6.9 mph - N/A   Clear
3:15 AM 84.2 °F 32.0 °F 15% 29.57 in 10.0 mi South 10.4 mph - N/A   Clear
3:35 AM 84.2 °F 32.0 °F 15% 29.57 in 10.0 mi SSW 8.1 mph - N/A   Clear
3:55 AM 82.4 °F 32.0 °F 16% 29.57 in 10.0 mi SSE 4.6 mph - N/A   Clear
4:15 AM 82.4 °F 32.0 °F 16% 29.57 in 10.0 mi SSE 5.8 mph - N/A   Clear
4:35 AM 80.6 °F 32.0 °F 17% 29.57 in 10.0 mi SSE 9.2 mph - N/A   Clear
4:55 AM 82.4 °F 33.8 °F 17% 29.58 in 10.0 mi Calm Calm - N/A   Clear
5:15 AM 77.0 °F 32.0 °F 19% 29.58 in 10.0 mi NNE 3.5 mph - N/A   Clear
5:35 AM 80.6 °F 32.0 °F 17% 29.58 in 10.0 mi South 8.1 mph - N/A   Clear
5:55 AM 80.6 °F 32.0 °F 17% 29.59 in 10.0 mi Calm Calm - N/A   Clear
6:15 AM 80.6 °F 33.8 °F 18% 29.60 in 10.0 mi South 3.5 mph - N/A   Clear
6:35 AM 80.6 °F 33.8 °F 18% 29.60 in 10.0 mi Calm Calm - N/A   Clear
6:55 AM 77.0 °F 35.6 °F 22% 29.60 in 10.0 mi NNW 3.5 mph - N/A   Clear
7:15 AM 80.6 °F 35.6 °F 20% 29.60 in 10.0 mi North 3.5 mph - N/A   Clear
7:35 AM 82.4 °F 35.6 °F 19% 29.61 in 10.0 mi North 3.5 mph - N/A   Clear
7:55 AM 84.2 °F 35.6 °F 18% 29.61 in 10.0 mi Calm Calm - N/A   Clear
8:15 AM 84.2 °F 33.8 °F 16% 29.61 in 10.0 mi Calm Calm - N/A   Clear
8:35 AM 86.0 °F 33.8 °F 15% 29.61 in 10.0 mi Calm Calm - N/A   Clear
8:55 AM 86.0 °F 33.8 °F 15% 29.60 in 10.0 mi West 3.5 mph - N/A   Clear
9:15 AM 86.0 °F 33.8 °F 15% 29.60 in 10.0 mi NNW 4.6 mph - N/A   Clear
9:35 AM 89.6 °F 33.8 °F 14% 29.60 in 10.0 mi WNW 3.5 mph - N/A   Clear
9:55 AM 91.4 °F 33.8 °F 13% 29.59 in 10.0 mi NNW 3.5 mph - N/A   Clear
10:15 AM 91.4 °F 32.0 °F 12% 29.59 in 10.0 mi Calm Calm - N/A   Clear
10:35 AM 91.4 °F 32.0 °F 12% 29.58 in 10.0 mi North 6.9 mph - N/A   Clear
10:55 AM 93.2 °F 24.8 °F 9% 29.57 in 10.0 mi NNW 10.4 mph - N/A   Clear
11:15 AM 95.0 °F 26.6 °F 9% 29.57 in 10.0 mi North 9.2 mph - N/A   Clear
11:35 AM 95.0 °F 30.2 °F 10% 29.57 in 10.0 mi North 5.8 mph - N/A   Clear
11:55 AM 95.0 °F 28.4 °F 9% 29.56 in 10.0 mi NNE 3.5 mph - N/A   Clear
12:15 PM 96.8 °F 26.6 °F 8% 29.55 in 10.0 mi NNE 8.1 mph - N/A   Clear
12:35 PM 96.8 °F 28.4 °F 9% 29.55 in 10.0 mi East 5.8 mph - N/A   Clear
12:55 PM 96.8 °F 28.4 °F 9% 29.54 in 10.0 mi East 3.5 mph - N/A   Clear
1:15 PM 98.6 °F 28.4 °F 8% 29.52 in 10.0 mi NE 5.8 mph - N/A   Clear
1:35 PM 98.6 °F 30.2 °F 9% 29.51 in 10.0 mi South 8.1 mph - N/A   Clear
1:55 PM 98.6 °F 30.2 °F 9% 29.51 in 10.0 mi SE 6.9 mph - N/A   Clear
2:15 PM 100.4 °F 30.2 °F 9% 29.49 in 10.0 mi SE 11.5 mph 17.3 mph N/A   Clear
2:35 PM 100.4 °F 30.2 °F 9% 29.48 in 10.0 mi ESE 4.6 mph - N/A   Clear
2:55 PM 102.2 °F 30.2 °F 8% 29.48 in 10.0 mi SSW 10.4 mph 18.4 mph N/A   Clear
3:15 PM 100.4 °F 28.4 °F 8% 29.47 in 10.0 mi SSW 5.8 mph - N/A   Clear
3:35 PM 102.2 °F 28.4 °F 7% 29.46 in 10.0 mi SSW 9.2 mph 19.6 mph N/A   Clear
3:55 PM 102.2 °F 28.4 °F 7% 29.44 in 10.0 mi South 13.8 mph 18.4 mph N/A   Clear
4:15 PM 102.2 °F 30.2 °F 8% 29.43 in 10.0 mi South 11.5 mph - N/A   Clear
4:35 PM 102.2 °F 30.2 °F 8% 29.43 in 10.0 mi SSE 15.0 mph 21.9 mph N/A   Clear
4:55 PM 102.2 °F 32.0 °F 9% 29.42 in 10.0 mi South 16.1 mph - N/A   Clear
5:15 PM 102.2 °F 32.0 °F 9% 29.41 in 10.0 mi South 19.6 mph 27.6 mph N/A   Clear
5:35 PM 100.4 °F 32.0 °F 9% 29.40 in 10.0 mi South 18.4 mph 24.2 mph N/A   Clear
5:55 PM 100.4 °F 30.2 °F 9% 29.40 in 10.0 mi South 24.2 mph - N/A   Clear
6:15 PM 100.4 °F 30.2 °F 9% 29.39 in 10.0 mi South 20.7 mph 29.9 mph N/A   Clear
6:35 PM 100.4 °F 32.0 °F 9% 29.41 in 10.0 mi SSE 23.0 mph 33.4 mph N/A   Clear
6:55 PM 100.4 °F 32.0 °F 9% 29.41 in 10.0 mi SSW 15.0 mph 18.4 mph N/A   Clear
7:15 PM 98.6 °F 32.0 °F 10% 29.42 in 10.0 mi SSW 13.8 mph - N/A   Clear
7:35 PM 98.6 °F 32.0 °F 10% 29.42 in 10.0 mi SSW 11.5 mph - N/A   Clear
7:55 PM 96.8 °F 32.0 °F 10% 29.43 in 10.0 mi SSW 9.2 mph - N/A   Clear
8:15 PM 95.0 °F 32.0 °F 11% 29.43 in 10.0 mi SW 6.9 mph - N/A   Clear
8:35 PM 93.2 °F 32.0 °F 11% 29.45 in 10.0 mi South 5.8 mph - N/A   Clear
8:55 PM 93.2 °F 30.2 °F 11% 29.45 in 10.0 mi SSE 11.5 mph - N/A   Clear
9:15 PM 93.2 °F 30.2 °F 11% 29.46 in 10.0 mi South 11.5 mph - N/A   Clear
9:35 PM 91.4 °F 30.2 °F 11% 29.47 in 10.0 mi South 9.2 mph - N/A   Clear
9:55 PM 91.4 °F 30.2 °F 11% 29.47 in 10.0 mi South 11.5 mph - N/A   Clear
10:15 PM 91.4 °F 30.2 °F 11% 29.48 in 10.0 mi South 10.4 mph - N/A   Clear
10:35 PM 89.6 °F 32.0 °F 13% 29.48 in 10.0 mi SE 11.5 mph - N/A   Clear
10:55 PM 87.8 °F 32.0 °F 14% 29.48 in 10.0 mi South 13.8 mph - N/A   Clear
11:15 PM 87.8 °F 32.0 °F 14% 29.49 in 10.0 mi South 11.5 mph - N/A   Clear
11:35 PM 86.0 °F 32.0 °F 14% 29.50 in 10.0 mi South 10.4 mph - N/A   Clear
11:55 PM 86.0 °F 32.0 °F 14% 29.50 in 10.0 mi South 9.2 mph 17.3 mph N/A   Clear